Location: All Nations United Methodist Church
(33.0215°N, 96.7483°W)
Time: 14:34:46
(UTC+00:00)

FALCON 9 DEB - Pass Details

Date: 24 January 2021
Orbit: 376 x 391 km, 53.0° (Epoch: 07 March)

Event Time Altitude Azimuth Distance (km) Brightness Sun altitude
Exits shadow 12:49:16 - 246° (WSW) 1,787 5.8 -8.2°
Reaches altitude 10° 12:50:15 10° 252° (WSW) 1,409 5.2 -8.0°
Maximum altitude 12:53:08 33° 318° (NW) 677 3.7 -7.5°
Drops below altitude 10° 12:56:01 10° 25° (NNE) 1,404 5.8 -6.9°
Sets 12:58:11 0° 36° (NE) 2,256 7.0 -6.5°
